Location: Ch�tillon
(48.8024°N, 2.2935°E)
Time: 18:00:24
(UTC+00:00)

RS-15 - Pass Details

Date: 04 July 2022
Orbit: 1881 x 2163 km, 64.8° (Epoch: 11 August)

Event Time Altitude Azimuth Distance (km) Brightness Sun altitude
Rises 00:06:39 0° 322° (NW) 5,701 11.2 -18.3°
Reaches altitude 10° 00:10:19 10° 316° (NW) 4,690 10.6 -18.2°
Maximum altitude 00:21:35 45° 250° (WSW) 2,709 8.5 -18.1°
Enters shadow 00:28:48 23° 194° (SSW) 3,616 8.8 -17.9°
